Location: Pompeys Pillar
(45.9913°N, 107.9528°W)
Time: 04:57:08
(UTC+00:00)

Tiros 1 - Pass Details

Date: 04 June 2022
Orbit: 629 x 663 km, 48.4° (Epoch: 30 June)

Event Time Altitude Azimuth Distance (km) Brightness Sun altitude
Rises 06:02:46 0° 257° (WSW) 2,910 10.6 -19.9°
Reaches altitude 10° 06:05:05 10° 259° (WSW) 2,004 9.7 -20.0°
Maximum altitude 06:09:41 79° 345° (NNW) 646 7.2 -20.2°
Drops below altitude 10° 06:14:20 10° 73° (ENE) 2,014 9.7 -20.4°
Sets 06:16:40 0° 75° (ENE) 2,927 10.6 -20.5°
